St. Joseph, KS

12:10 PM CST on December 05, 2019 (GMT -0600)
Rosecrans Memorial

Weather History for KSTJ - October, 2019

Change the Weather History Date:

Monday, October 28, 2019

  Actual Average Record
Temperature  
Mean Temperature 37 °F 50 °F  
Max Temperature 42 °F 62 °F 85 °F (1927)
Min Temperature 32 °F 39 °F 14 °F (1925)
Degree Days  
Heating Degree Days 28 15  
Month to date heating degree days 345 291  
Since 1 July heating degree days 350 371  
Cooling Degree Days 0 0  
Month to date cooling degree days 17 18  
Year to date cooling degree days 1466 1217  
Moisture  
Dew Point 30 °F    
Average Humidity 76    
Maximum Humidity 92    
Minimum Humidity 59    
Precipitation  
Precipitation 0.12 in 0.08 in 1.42 in (1982)
Month to date precipitation 3.26 2.58  
Year to date precipitation 36.86 32.30  
Sea Level Pressure  
Sea Level Pressure 30.13 in    
Wind  
Wind Speed 11 mph (North)    
Max Wind Speed 21 mph    
Max Gust Speed 26 mph    
Visibility 6 miles    
Events      
T = Trace of Precipitation, MM = Missing Value Source: NWS Daily Summary

Daily Weather History Graph

Daily Weather History Graph

Search for Another Location

Airport or City:

Astronomy

Oct. 28, 2019 Rise Set
Actual Time 7:43 AM CDT 6:22 PM CDT
Civil Twilight 7:15 AM CDT 6:50 PM CDT
Nautical Twilight 6:44 AM CDT 7:22 PM CDT
Astronomical Twilight 6:12 AM CDT 7:53 PM CDT
Moon 8:06 AM CDT (10/28) 7:08 PM CDT (10/28)
Length of Visible Light 11h 34m
Length of Day
10h 39m
New Moon, 0% of the Moon is Illuminated
Oct 28
New Moon
Nov 4
First Quarter
Nov 12
Full
Nov 19
Last Quarter
Nov 26
New

Hourly Weather History & Observations

Time (CDT) Temp. Windchill Dew Point Humidity Pressure Visibility Wind Dir Wind Speed Gust Speed Precip Events Conditions
12:53 AM 42.1 °F 34.9 °F 33.1 °F 70% 30.14 in 10.0 mi North 13.8 mph - N/A   Overcast
1:03 AM 42.1 °F 34.5 °F 33.1 °F 70% 30.13 in 10.0 mi NNW 15.0 mph - N/A   Overcast
1:53 AM 39.9 °F 31.4 °F 33.1 °F 77% 30.15 in 10.0 mi NNW 16.1 mph - N/A   Overcast
2:53 AM 39.0 °F 30.3 °F 30.9 °F 73% 30.15 in 10.0 mi NNW 16.1 mph - N/A   Overcast
3:53 AM 37.9 °F 29.6 °F 30.0 °F 73% 30.16 in 10.0 mi North 13.8 mph - N/A   Overcast
4:53 AM 37.9 °F 30.0 °F 28.9 °F 70% 30.16 in 10.0 mi NNW 12.7 mph 21.9 mph N/A   Overcast
5:53 AM 37.9 °F 28.9 °F 27.0 °F 65% 30.17 in 10.0 mi North 16.1 mph - N/A   Overcast
6:53 AM 37.9 °F 30.0 °F 26.1 °F 62% 30.18 in 10.0 mi North 12.7 mph - N/A   Overcast
7:53 AM 37.0 °F 29.8 °F 26.1 °F 65% 30.18 in 10.0 mi North 10.4 mph - N/A   Overcast
8:53 AM 37.0 °F 29.3 °F 26.1 °F 65% 30.19 in 10.0 mi North 11.5 mph - N/A   Overcast
9:53 AM 37.0 °F 29.8 °F 26.1 °F 65% 30.19 in 10.0 mi North 10.4 mph - N/A   Overcast
10:44 AM 37.9 °F 30.9 °F 26.1 °F 62% 30.17 in 10.0 mi North 10.4 mph - N/A   Overcast
10:53 AM 37.9 °F 30.5 °F 27.0 °F 65% 30.18 in 10.0 mi North 11.5 mph - N/A   Overcast
11:53 AM 39.0 °F 32.3 °F 27.0 °F 62% 30.17 in 10.0 mi North 10.4 mph - N/A   Overcast
12:53 PM 39.9 °F 33.9 °F 27.0 °F 60% 30.14 in 10.0 mi North 9.2 mph - N/A   Overcast
1:53 PM 39.9 °F 34.5 °F 28.0 °F 63% 30.12 in 10.0 mi North 8.1 mph - N/A   Overcast
2:53 PM 39.9 °F 34.5 °F 28.0 °F 63% 30.09 in 10.0 mi NE 8.1 mph - N/A   Overcast
3:53 PM 39.9 °F 35.1 °F 28.9 °F 65% 30.09 in 10.0 mi NNE 6.9 mph - N/A   Overcast
4:24 PM 39.9 °F 33.9 °F 28.9 °F 65% 30.07 in 10.0 mi NNE 9.2 mph - N/A   Overcast
4:53 PM 37.9 °F 33.5 °F 30.0 °F 73% 30.09 in 6.0 mi North 5.8 mph - N/A   Haze
5:01 PM 37.9 °F 32.1 °F 30.9 °F 76% 30.07 in 5.0 mi NNE 8.1 mph - N/A   Haze
5:28 PM 37.0 °F 31.0 °F 32.0 °F 82% 30.07 in 6.0 mi North 8.1 mph - 0.01 in   Haze
5:49 PM 35.6 °F 28.6 °F 32.0 °F 87% 30.08 in 4.0 mi North 9.2 mph - 0.02 in   Overcast
5:53 PM 36.0 °F 29.6 °F 32.0 °F 86% 30.10 in 3.0 mi NNW 8.1 mph - 0.02 in   Overcast
6:04 PM 34.0 °F 27.2 °F 32.0 °F 92% 30.10 in 2.5 mi NNW 8.1 mph - 0.01 in   Overcast
6:28 PM 33.1 °F 26.9 °F 30.9 °F 92% 30.10 in 2.0 mi NNW 6.9 mph - 0.03 in   Overcast
6:30 PM 33.1 °F 26.9 °F 30.9 °F 92% 30.10 in 1.8 mi NNW 6.9 mph - 0.03 in   Overcast
6:37 PM 33.1 °F 26.1 °F 30.9 °F 92% 30.10 in 1.8 mi NNW 8.1 mph - 0.04 in   Overcast
6:46 PM 33.1 °F 26.1 °F 30.9 °F 92% 30.11 in 2.5 mi NNW 8.1 mph - 0.04 in   Overcast
6:53 PM 33.1 °F 26.9 °F 30.9 °F 92% 30.13 in 2.5 mi NNW 6.9 mph - 0.05 in   Overcast
7:00 PM 33.1 °F 26.9 °F 30.9 °F 92% 30.11 in 3.0 mi NNW 6.9 mph - N/A   Overcast
7:24 PM 33.1 °F 24.9 °F 30.9 °F 92% 30.11 in 2.0 mi NNW 10.4 mph - 0.02 in   Overcast
7:28 PM 33.1 °F 25.5 °F 30.9 °F 92% 30.12 in 1.8 mi NNW 9.2 mph - 0.02 in   Overcast
7:33 PM 33.1 °F 25.5 °F 30.9 °F 92% 30.12 in 2.0 mi NNW 9.2 mph - 0.02 in   Overcast
7:44 PM 33.1 °F 24.4 °F 30.9 °F 92% 30.11 in 1.8 mi NNW 11.5 mph - 0.03 in   Overcast
7:50 PM 33.8 °F 25.3 °F 30.2 °F 87% 30.12 in 2.0 mi NNW 11.5 mph - 0.03 in   Overcast
7:53 PM 33.1 °F 24.4 °F 30.9 °F 92% 30.14 in 2.0 mi North 11.5 mph - 0.03 in   Overcast
8:11 PM 33.1 °F 24.4 °F 30.9 °F 92% 30.12 in 2.5 mi North 11.5 mph - 0.01 in   Overcast
8:24 PM 33.1 °F 23.9 °F 30.9 °F 92% 30.13 in 2.0 mi North 12.7 mph - 0.01 in   Overcast
8:31 PM 33.1 °F 24.4 °F 30.9 °F 92% 30.13 in 2.0 mi NNW 11.5 mph - 0.01 in   Overcast
8:35 PM 33.1 °F 24.4 °F 30.9 °F 92% 30.13 in 1.8 mi NNW 11.5 mph - 0.01 in   Overcast
8:53 PM 33.1 °F 23.9 °F 30.0 °F 89% 30.17 in 2.0 mi NNW 12.7 mph - 0.02 in   Overcast
9:10 PM 32.0 °F 21.2 °F 30.0 °F 92% 30.15 in 3.0 mi North 16.1 mph - N/A   Overcast
9:23 PM 32.0 °F 23.0 °F 30.0 °F 92% 30.15 in 4.0 mi NNW 11.5 mph - N/A   Overcast
9:35 PM 32.0 °F 23.6 °F 30.0 °F 92% 30.15 in 4.0 mi North 10.4 mph - N/A   Overcast
9:53 PM 32.0 °F 24.2 °F 30.0 °F 92% 30.17 in 7.0 mi North 9.2 mph - N/A   Overcast
10:53 PM 33.1 °F 26.1 °F 30.0 °F 89% 30.21 in 10.0 mi NNW 8.1 mph - N/A   Overcast
11:53 PM 33.1 °F 26.1 °F 30.0 °F 89% 30.21 in 10.0 mi North 8.1 mph - N/A   Overcast